Regional Weather Roundup
Issued by NWS

Home | Current Version | Previous Version | Graphics & Text | Print | Product List | Glossary On
Versions: 1 2 3 4 5 6 7 8 9 10 11 12 13 14 15 16 17 18 19 20 21 22 23 24 25 26 27 28 29 30 31 32 33 34 35 36 37 38 39 40 41 42 43 44 45 46 47 48 49 50
632
ASUS45 KCYS 221410
RWRWY

WYOMING REGIONAL WEATHER ROUNDUP
NATIONAL WEATHER SERVICE CHEYENNE WY
800 AM MDT TUE AUG 22 2017

NOTE:  "FAIR" INDICATES FEW OR NO CLOUDS BELOW 12,000 FEET
WITH NO SIGNIFICANT WEATHER AND/OR OBSTRUCTIONS TO VISIBILITY.

WYZ001-221500-
YELLOWSTONE NATIONAL PARK

CITY           SKY/WX    TMP DP  RH WIND       PRES   REMARKS
LK YELLOWSTONE   N/A     41  37  86 CALM      30.46R
W YELLOWSTONE  NOT AVBL

$$
WYZ002>013-054>058-071-098>099-221500-
NORTHERN WYOMING

CITY           SKY/WX    TMP DP  RH WIND       PRES   REMARKS
JACKSON        FAIR      43  33  68 N3        30.41R
CODY           FAIR      59  38  45 SW6       30.28S
GREYBULL       FAIR      52  38  58 CALM      30.23R
WORLAND        FAIR      51  42  71 CALM      30.24R
SHERIDAN       FAIR      53  42  66 CALM      30.21S
BUFFALO        FAIR      65  34  31 NW3       30.26S
GILLETTE       FAIR      63  40  42 S14       30.23S
HULETT         FAIR      55  41  58 CALM      30.27S
NEWCASTLE      FAIR      63  36  36 SE14      30.29S

$$
WYZ014>020-022>026-101>103-221500-
CENTRAL WYOMING

CITY           SKY/WX    TMP DP  RH WIND       PRES   REMARKS
BIG PINEY      FAIR      42  24  49 E6        30.41S
PINEDALE       FAIR      39  30  70 W7        30.43S WCI  34
DUBOIS         FAIR      46  32  57 NW13      30.42S
LANDER           N/A    N/A N/A N/A MISG      30.33R
RIVERTON       FAIR      56  39  53 NW8       30.31R
CASPER         FAIR      54  40  59 CALM      30.30S
DOUGLAS        FAIR      60  44  55 SE13      30.29R

$$
WYZ021-027>030-104>119-221500-
SOUTHERN WYOMING

CITY           SKY/WX    TMP DP  RH WIND       PRES   REMARKS
EVANSTON       FAIR      58  37  45 SE5       30.39R
KEMMERER         N/A     46  32  57 N8        30.40S
FORT BRIDGER   FAIR      60  33  35 CALM      30.41R
ROCK SPRINGS   FAIR      56  35  45 CALM      30.38R
RAWLINS        NOT AVBL
SARATOGA       FAIR      54  37  54 N5        30.39R
LARAMIE        FAIR      57  46  66 S13       30.38R
CHEYENNE       CLOUDY    59  54  83 S14       30.36R
TORRINGTON     FAIR      58  46  64 E9        30.28S
PINE BLUFFS    CLOUDY    59  55  88 SE13      30.34S

$$




USA.gov is the U.S. government's official web portal to all federal, state and local government web resources and services.